Preview of NWS' New Version of Forecast
This preview is not operational and should not be used for support decisions.

Regional Weather Roundup (RWR)

Issued by National Weather Service (NWS)

                            
000
ASUS45 KBOI 241210
RWRID 

IDAHO REGIONAL WEATHER ROUNDUP
NATIONAL WEATHER SERVICE BOISE ID
600 AM MDT MON JUN 24 2019

NOTE: "FAIR" INDICATES FEW OR NO CLOUDS BELOW 12000 FEET
WITH NO SIGNIFICANT WEATHER AND/OR OBSTRUCTIONS TO VISIBILITY

IDZ012-014-241300-
SOUTHWEST IDAHO

  
CITY           SKY/WX    TMP DP  RH WIND       PRES   REMARKS
BOISE          CLEAR     50  40  68 S3        29.99S                  
CALDWELL       CLEAR     50  40  68 CALM      29.99S                  
MOUNTAIN HOME  CLEAR     49  39  68 NW7       29.99S                  
$$

IDZ016-017-241300-
SOUTHCENTRAL IDAHO

  
CITY           SKY/WX    TMP DP  RH WIND       PRES   REMARKS
BURLEY         CLEAR     49  38  65 SW8       30.00R                  
JEROME         CLEAR     51  38  60 SW6       30.01R                  
TWIN FALLS     CLEAR     50  36  58 SW13      30.02R                  
$$

IDZ019>023-241300-
SOUTHEAST IDAHO

  
CITY           SKY/WX    TMP DP  RH WIND       PRES   REMARKS
IDAHO FALLS    CLEAR     48  34  58 S13       29.99R                  
POCATELLO      PTCLDY    52  34  50 SW14      30.00R                  
REXBURG        CLEAR     48  35  60 S8        29.98R                  
$$

IDZ006-010-011-018-031-032-241300-
CENTRAL IDAHO MOUNTAINS

  
CITY           SKY/WX    TMP DP  RH WIND       PRES   REMARKS
MCCALL         CLEAR     37  32  82 E3        30.00F                  
HAILEY         CLEAR     41  34  75 NW7       30.04R                  
STANLEY          N/A     29  25  85 CALM      30.07S                  
SALMON         CLEAR     42  37  82 CALM      30.00S                  
CHALLIS        CLEAR     46  32  58 N5        30.01R                  
$$

IDZ002-004-006-007-026-241300-
NORTHERN IDAHO

  
CITY           SKY/WX    TMP DP  RH WIND       PRES   REMARKS
LEWISTON       CLEAR     53  39  59 SE5       29.97S                  
LOWELL           N/A     50  48  93 N3        30.00S                  
COEUR D'ALENE  PTCLDY    46  40  79 SW3       29.96R                  
MULLAN PASS    PTCLDY    39  33  79 VRB6      29.98F WCI  35          
$$